Regional Weather Roundup
Issued by NWS

Home | Current Version | Previous Version | Text Only | Print | Product List | Glossary On
Versions: 1 2 3 4 5 6 7 8 9 10 11 12 13 14 15 16 17 18 19 20 21 22 23 24 25 26 27 28 29 30 31 32 33 34 35 36 37 38 39 40 41 42 43 44 45 46 47 48 49 50
000
ASUS44 KFWD 230915
RWRTX
NORTH TEXAS HOURLY WEATHER ROUNDUP
NATIONAL WEATHER SERVICE FORT WORTH TX
400 AM CDT MON OCT 23 2017

NOTE: "FAIR" INDICATES FEW OR NO CLOUDS BELOW 12,000 FEET WITH NO
SIGNIFICANT WEATHER AND/OR OBSTRUCTIONS TO VISIBILITY.

TXZ118-119-231000-
DALLAS/FORT WORTH METROPLEX

CITY           SKY/WX    TMP DP  RH WIND       PRES   REMARKS
DFW AIRPORT    CLEAR     50  45  83 S6        30.10F
DALLAS LOVE    CLEAR     55  47  74 CALM      30.12F
FTW MEACHAM    CLEAR     52  45  77 CALM      30.12F
DAL-EXECUTIVE  CLEAR     53  41  63 SW3       30.12F
FTW-ALLIANCE   CLEAR     46  42  86 CALM      30.11F
FTW-NAS-JRB    CLEAR     50  42  74 CALM      30.13F
FTW-SPINKS     CLEAR     45  43  93 SW3       30.14F
ARLINGTON      CLEAR     44  44 100 CALM      30.12F
GRAND PRAIRIE  CLEAR     52  44  74 CALM      30.14F
ADDISON        CLEAR     53  44  73 CALM      30.14F
MESQUITE       CLEAR     46  45  96 S3        30.12F
LANCASTER      CLEAR     47  43  85 CALM      30.14F
$$

TXZ091>094-102>105-117-120-121-131>134-231000-
NORTH CENTRAL TEXAS

CITY           SKY/WX    TMP DP  RH WIND       PRES   REMARKS
SHRMAN/DENISON CLEAR     48  42  77 CALM      30.12S
GAINESVILLE    CLEAR     45  41  87 CALM      30.12F
BOWIE          CLEAR     44  43  95 CALM      30.11S
BRIDGEPORT     CLEAR     43  43 100 CALM      30.14F
DECATUR        CLEAR     60  32  34 S8        30.10F
DENTON         CLEAR     46  42  86 E3        30.11F
MCKINNEY       CLEAR     46  45  96 CALM      30.11F
BONHAM         CLEAR     45  43  91 CALM      30.11F
GREENVILLE     CLEAR     46  46 100 CALM      30.12F
ROCKWALL       CLEAR     52  47  84 S5        30.12F
TERRELL        CLEAR     47  43  86 CALM      30.13F
WAXAHACHIE     CLEAR     49  43  81 CALM      30.15S
CLEBURNE       CLEAR     46  45  93 W3        30.15S
GRANBURY       CLEAR     44  40  86 CALM      30.15S
$$

TXZ083>090-098>101-113>116-127>130-139>142-154-155-231000-
WESTERN NORTH TEXAS

CITY           SKY/WX    TMP DP  RH WIND       PRES   REMARKS
WICHITA FALLS  CLEAR     50  38  63 SW10      30.09F
WF-KICKAPOO    CLEAR     50  39  66 S3        30.12F
VERNON         CLEAR     48  41  75 SW7       30.10F
ABILENE        CLOUDY    49  39  68 S6        30.14F
ABILENE-DYESS  CLEAR     47  38  70 S3        30.14S
GRAHAM           N/A     42  32  67 CALM      30.11F
BRECKENRIDGE   CLEAR     51  38  60 CALM      30.13S
CISCO          CLEAR     52  37  58 S7        30.15F
EASTLAND       CLEAR     41  40  97 CALM      30.15S
RANGER         CLEAR     50  40  68 SW8       30.14F
MINERAL WELLS  CLEAR     45  41  86 CALM      30.11F
STEPHENVILLE   CLEAR     45  42  89 CALM      30.17S
COMANCHE       CLEAR     51  39  63 S6        30.15F
COLEMAN        CLOUDY    49  37  63 SW6       30.16F
$$

TXZ143>147-156>162-174-175-231000-
CENTRAL TEXAS

CITY           SKY/WX    TMP DP  RH WIND       PRES   REMARKS
WACO           CLEAR     46  44  93 MISG      30.15F FOG
WACO-MCGREGOR  CLEAR     47  44  90 SW3       30.15F
CORSICANA      CLEAR     50  46  86 W5        30.15
MEXIA          CLEAR     51  42  73 CALM      30.14F
HEARNE         CLEAR     47  47 100 CALM      30.17S
CAMERON        CLEAR     52  46  80 W3        30.16S
TEMPLE         CLEAR     48  46  93 CALM      30.17S
KILLEEN        CLEAR     51  42  73 W3        30.15F
KILLEEN-SKYLRK CLEAR     48  43  82 CALM      30.16F
FORT HOOD      CLEAR     50  45  84 CALM      30.12F
GATESVILLE     CLEAR     48  43  81 CALM      30.17F
HAMILTON       CLEAR     50  41  70 SE5       30.16F
LAMPASAS       CLEAR     49  45  85 W3        30.15F
$$

TXZ095>097-106>112-122>126-135>138-148>153-164>167-231000-
EAST TEXAS

CITY           SKY/WX    TMP DP  RH WIND       PRES   REMARKS
PARIS          CLEAR     48  45  89 W3        30.11F
SULPHUR SPRNGS CLEAR     49  45  84 CALM      30.14S
MOUNT PLEASANT PTCLDY    45  44  99 CALM      30.13S
GILMER         PTCLDY    46  46  98 CALM      30.11F THUNDER
MINEOLA        CLEAR     48  46  93 CALM      30.13S
TYLER          CLEAR     48  47  96 S3        30.12F
LONGVIEW       CLEAR     47  32  56 CALM      30.11F
MARSHALL       PTCLDY    45  43  94 CALM      30.13S
ATHENS         CLEAR     45  45 100 CALM      30.13S
PALESTINE      CLEAR     46  46  99 CALM      30.16S
JACKSONVILLE   PTCLDY    55  44  64 CALM      30.14F
HENDERSON      PTCLDY    45  45  99 CALM      30.14S
CENTER         MOSUNNY   53  52  96 CALM      30.14R
NACOGDOCHES    PTCLDY    46  46 100 CALM      30.14F
LUFKIN         PTCLDY    48  47  96 CALM      30.13F
$$

SUPPLEMENTAL OBSERVATIONS (NWS FORT WORTH AREA)

CITY           SKY/WX    TMP DP  RH WIND       PRES   REMARKS
DENISON DAM      N/A     55  34  44 SW2         N/A
CADDO GRASSLND   N/A     46  43  87 CALM        N/A
PAT MAYSE LAKE   N/A     46  45  93 CALM        N/A
GREENVILLE       N/A     46  41  81 S1          N/A
CEDAR HILL       N/A     52  39  62 SE2         N/A
LBJ GRASSLAND    N/A     54  37  54 SE3         N/A
POSSUM KINGDOM   N/A     52  39  62 S7          N/A
GRANBURY         N/A     43  39  87 CALM        N/A
COMANCHE         N/A     52  36  54 S7          N/A
MCGREGOR         N/A     45  41  87 S2          N/A
TEMPLE           N/A     48  45  87 W2          N/A
LAKE LIMESTONE   N/A     46  43  87 SW3         N/A
ATHENS           N/A     46  45  93 CALM        N/A
$$

SUPPLEMENTAL OBSERVATIONS (NWS NORMAN AREA)

CITY           SKY/WX    TMP DP  RH WIND       PRES   REMARKS
GOODLETT         N/A     46  39  76 SW8       30.09F
ODELL            N/A     49  43  80 SW7       30.11S
CROWELL          N/A     50  38  62 SW6       30.11F
KNOX CITY        N/A     49  40  72 SW6       30.13F
SEYMOUR          N/A     50  41  71 S6        30.12S
MILLERS CREEK    N/A     48  39  71 SW6         N/A
$$

SUPPLEMENTAL OBSERVATIONS (NWS SAN ANGELO AREA)

CITY           SKY/WX    TMP DP  RH WIND       PRES   REMARKS
WEINERT          N/A     53  40  61 S9        30.13S
HASKELL          N/A     47  40  75 S8        30.13F
THROCKMORTON     N/A     54  37  52 S8        30.13S
STAMFORD         N/A     48  42  79 S8        30.14F
CLYDE            N/A     52  37  57 S9        30.16S
HAMBY            N/A     52  37  58 S7          N/A
IVIE RESERVOIR   N/A     50  36  57 CALM        N/A
COLORADO BEND    N/A     52  37  58 CALM        N/A
$$

SUPPLEMENTAL OBSERVATIONS (NWS SHREVEPORT AREA)

CITY           SKY/WX    TMP DP  RH WIND       PRES   REMARKS
CLARKSVILLE      N/A     46  43  87 CALM        N/A
TEXARKANA        N/A     43  41  93 CALM        N/A
LINDEN           N/A     48  45  87 W2          N/A
CADDO LAKE       N/A     39  37  93 CALM        N/A
GILMER           N/A     45  43  93 CALM        N/A
HENDERSON        N/A     45  43  93 CALM        N/A
LUFKIN           N/A     48  46  93 MISG        N/A
S SABINE NF      N/A     50  48  93 S1          N/A
$$

SUPPLEMENTAL OBSERVATIONS ARE A COLLECTION OF AUTOMATED INSTRUMENTS
THAT ARE MAINTAINED BY A VARIETY OF FEDERAL AND STATE AGENCIES.
CERTAIN ELEMENTS...SUCH AS HUMIDITY VALUES AND SUSTAINED WIND
SPEEDS...MAY BE APPROXIMATED.





USA.gov is the U.S. government's official web portal to all federal, state and local government web resources and services.